QPF
0.00 0.00 0.00 0.00 0.00 0.00 0.00 0.00 0.00 0.00 0.00 0.00 0.00 0.00 0.00 0.00 0.00 0.00 0.00 0.00 0.00 0.00 0.00 0.00 0.00 0.00 0.00 0.00 0.00 0.00 0.00 0.00 0.00 0.00 0.00 0.00 0.00 0.00 0.00 0.00 0.00 0.00 0.00 0.00
0.00 0.00 0.00 0.00 0.00 0.00 0.00 0.00 0.00 0.00 0.00 0.00 0.00 0.00 0.00 0.00 0.00 0.00 0.00 0.00 0.00 0.00 0.00 0.00 0.00 0.00 0.00 0.00 0.00 0.00 0.00 0.00 0.00 0.00 0.00 0.00 0.00 0.00 0.00 0.00 0.00 0.00 0.00 0.00
0.00 0.00 0.00 0.00 0.00 0.00 0.00 0.00 0.00 0.00 0.00 0.00 0.00 0.00 0.00 0.00 0.00 0.00 0.00 0.00 0.00 0.00 0.00 0.00 0.00 0.00 0.00 0.00 0.00 0.00 0.00 0.00 0.00 0.00 0.00 0.00 0.00 0.00 0.00 0.00 0.00 0.00 0.00 0.00
0.00 0.00 0.00 0.00 0.00 0.00 0.00 0.00 0.00 0.00 0.00 0.00 0.00 0.00 0.00 0.00 0.00 0.00 0.00 0.00 0.00 0.00 0.00 0.00 0.00 0.00 0.00 0.00 0.00 0.00 0.00 0.00 0.00 0.00 0.00 0.00 0.00 0.00 0.00 0.00 0.00 0.00 0.00 0.00
0.00 0.00 0.00 0.00 0.00 0.00 0.00 0.00 0.00 0.00 0.00 0.00 0.00 0.00 0.00 0.00 0.00 0.00 0.00 0.00 0.00 0.00 0.00 0.00 0.00 0.00 0.00 0.00 0.00 0.00 0.00 0.00 0.00 0.00 0.00 0.00 0.00 0.00 0.00 0.00 0.00 0.00 0.00 0.00
0.00 0.00 0.00 0.00 0.00 0.00 0.00 0.00 0.00 0.00 0.00 0.00 0.00 0.00 0.00 0.00 0.00 0.00 0.00 0.00 0.00 0.00 0.00 0.00 0.00 0.00 0.00 0.00 0.00 0.00 0.00 0.00 0.00 0.00 0.00 0.00 0.00 0.00 0.00 0.00 0.00 0.00 0.00 0.00
0.00 0.00 0.00 0.00 0.00 0.00 0.00 0.00 0.00 0.00 0.00 0.00 0.00 0.00 0.00 0.00 0.00 0.00 0.00 0.00 0.00 0.00 0.00 0.00 0.00 0.00 0.00 0.00 0.00 0.00 0.00 0.00 0.00 0.00 0.00 0.00 0.00 0.00 0.00 0.00 0.00 0.00 0.00 0.00
0.00 0.00 0.00 0.00 0.00 0.00 0.00 0.00 0.00 0.00 0.00 0.00 0.00 0.00 0.00 0.00 0.00 0.00 0.00 0.00 0.00 0.00 0.00 0.00 0.00 0.00 0.00 0.00 0.00 0.00 0.00 0.00 0.00 0.00 0.00 0.00 0.00 0.00 0.00 0.00 0.00 0.00 0.00 0.00
0.00 0.00 0.00 0.00 0.00 0.00 0.00 0.00 0.00 0.00 0.00 0.00 0.00 0.00 0.00 0.00 0.00 0.00 0.00 0.00 0.00 0.00 0.00 0.00 0.00 0.00 0.00 0.00 0.00 0.00 0.00 0.00 0.00 0.00 0.00 0.00 0.00 0.00 0.00 0.00 0.00 0.00 0.00 0.00
0.00 0.00 0.00 0.00 0.00 0.00 0.00 0.00 0.00 0.00 0.00 0.00 0.00 0.00 0.00 0.00 0.00 0.00 0.00 0.00 0.00 0.00 0.00 0.00 0.00 0.00 0.00 0.00 0.00 0.00 0.00 0.00 0.00 0.00 0.00 0.00 0.00 0.00 0.00 0.00 0.00 0.00 0.00 0.00
0.00 0.00 0.00 0.00 0.00 0.00 0.00 0.00 0.00 0.00 0.00 0.00 0.00 0.00 0.00 0.00 0.00 0.00 0.00 0.00 0.00 0.00 0.00 0.00 0.00 0.00 0.00 0.00 0.00 0.00 0.00 0.00 0.00 0.00 0.00 0.00 0.00 0.00 0.00 0.00 0.00 0.00 0.00 0.00
0.00 0.00 0.00 0.00 0.00 0.00 0.00 0.00 0.00 0.00 0.00 0.00 0.00 0.00 0.00 0.00 0.00 0.00 0.00 0.00 0.00 0.00 0.00 0.00 0.00 0.00 0.00 0.00 0.00 0.00 0.00 0.00 0.00 0.00 0.00 0.00 0.00 0.00 0.00 0.00 0.00 0.00 0.00 0.00
0.00 0.00 0.00 0.00 0.00 0.00 0.00 0.00 0.00 0.00 0.00 0.00 0.00 0.00 0.00 0.00 0.00 0.00 0.00 0.00 0.00 0.00 0.00 0.00 0.00 0.00 0.00 0.00 0.00 0.00 0.00 0.00 0.00 0.00 0.00 0.00 0.00 0.00 0.00 0.00 0.00 0.00 0.00 0.00
0.00 0.00 0.00 0.00 0.00 0.00 0.00 0.00 0.00 0.00 0.00 0.00 0.00 0.00 0.00 0.00 0.00 0.00 0.00 0.00 0.00 0.00 0.00 0.00 0.00 0.00 0.00 0.00 0.00 0.00 0.00 0.00 0.00 0.00 0.00 0.00 0.00 0.00 0.00 0.00 0.00 0.00 0.00 0.00
0.00 0.00 0.00 0.00 0.00 0.00 0.00 0.00 0.00 0.00 0.00 0.00 0.00 0.00 0.00 0.00 0.00 0.00 0.00 0.00 0.00 0.00 0.00 0.00 0.00 0.00 0.00 0.00 0.00 0.00 0.00 0.00 0.00 0.00 0.00 0.00 0.00 0.00 0.00 0.00 0.00 0.00 0.00 0.00
0.00 0.00 0.00 0.00 0.00 0.00 0.00 0.00 0.00 0.00 0.00 0.00 0.00 0.00 0.00 0.00 0.00 0.00 0.00 0.00 0.00 0.00 0.00 0.00 0.00 0.00 0.00 0.00 0.00 0.00 0.00 0.00 0.00 0.00 0.00 0.00 0.00 0.00 0.00 0.00 0.00 0.00 0.00 0.00
0.00 0.00 0.00 0.00 0.00 0.00 0.00 0.00 0.00 0.00 0.00 0.00 0.00 0.00 0.00 0.00 0.00 0.00 0.00 0.00 0.00 0.00 0.00 0.00 0.00 0.00 0.00 0.00 0.00 0.00 0.00 0.00 0.00 0.00 0.00 0.00 0.00 0.00 0.00 0.00 0.00 0.00 0.00 0.00
0.00 0.00 0.00 0.00 0.00 0.00 0.00 0.00 0.00 0.00 0.00 0.00 0.00 0.00 0.00 0.00 0.00 0.00 0.00 0.00 0.00 0.00 0.00 0.00 0.00 0.00 0.00 0.00 0.00 0.00 0.00 0.00 0.00 0.00 0.00 0.00 0.00 0.00 0.00 0.00 0.00 0.00 0.00 0.00
0.00 0.00 0.00 0.00 0.00 0.00 0.00 0.00 0.00 0.00 0.00 0.00 0.00 0.00 0.00 0.00 0.00 0.00 0.00 0.00 0.00 0.00 0.00 0.00 0.00 0.00 0.00 0.00 0.00 0.00 0.00 0.00 0.00 0.00 0.00 0.00 0.00 0.00 0.00 0.00 0.00 0.00 0.00 0.00
0.00 0.00 0.00 0.00 0.00 0.00 0.00 0.00 0.00 0.00 0.00 0.00 0.00 0.00 0.00 0.00 0.00 0.00 0.00 0.00 0.00 0.00 0.00 0.00 0.00 0.00 0.00 0.00 0.00 0.00 0.00 0.00 0.00 0.00 0.00 0.00 0.00 0.00 0.00 0.00 0.00 0.00 0.00 0.00
0.00 0.00 0.00 0.00 0.00 0.00 0.00 0.00 0.00 0.00 0.00 0.00 0.00 0.00 0.00 0.00 0.00 0.00 0.00 0.00 0.00 0.00 0.00 0.00 0.00 0.00 0.00 0.00 0.00 0.00 0.00 0.00 0.00 0.00 0.00 0.00 0.00 0.00 0.00 0.00 0.00 0.00 0.00 0.00
0.00 0.00 0.00 0.00 0.00 0.00 0.00 0.00 0.00 0.00 0.00 0.00 0.00 0.00 0.00 0.00 0.00 0.00 0.00 0.00 0.00 0.00 0.00 0.00 0.00 0.00 0.00 0.00 0.00 0.00 0.00 0.00 0.00 0.00 0.00 0.00 0.00 0.00 0.00 0.00 0.00 0.00 0.00 0.00
0.00 0.00 0.00 0.00 0.00 0.00 0.00 0.00 0.00 0.00 0.00 0.00 0.00 0.00 0.00 0.00 0.00 0.00 0.00 0.00 0.00 0.00 0.00 0.00 0.00 0.00 0.00 0.00 0.00 0.00 0.00 0.00 0.00 0.00 0.00 0.00 0.00 0.00 0.00 0.00 0.00 0.00 0.00 0.00
0.00 0.00 0.00 0.00 0.00 0.00 0.00 0.00 0.00 0.00 0.00 0.00 0.00 0.00 0.00 0.00 0.00 0.00 0.00 0.00 0.00 0.00 0.00 0.00 0.00 0.00 0.00 0.00 0.00 0.00 0.00 0.00 0.00 0.01 0.00 0.00 0.00 0.00 0.00 0.00 0.00 0.00 0.00 0.00
0.00 0.00 0.00 0.00 0.00 0.00 0.00 0.00 0.00 0.00 0.00 0.00 0.00 0.00 0.00 0.00 0.00 0.00 0.00 0.00 0.00 0.00 0.00 0.00 0.00 0.00 0.00 0.00 0.00 0.00 0.00 0.00 0.00 0.00 0.00 0.00 0.00 0.00 0.00 0.00 0.00 0.00 0.00 0.00
0.00 0.00 0.00 0.00 0.00 0.00 0.00 0.00 0.00 0.00 0.00 0.00 0.00 0.00 0.00 0.00 0.00 0.00 0.00 0.00 0.00 0.00 0.00 0.00 0.00 0.00 0.00 0.00 0.00 0.00 0.00 0.00 0.00 0.00 0.00 0.00 0.00 0.00 0.00 0.00 0.00 0.00 0.00 0.00
MSLP
1007.60 1006.72 1005.99 1006.41 1007.04 1007.22 1006.87 1006.78 1006.70 1006.82 1007.88 1008.87 1008.33 1009.03 1010.31 1011.69 1011.72 1012.07 1012.65 1013.35 1013.96 1014.62 1015.12 1015.31 1015.57 1015.74 1016.00 1016.40 1016.65 1016.75 1016.86 1017.01 1016.48 1015.97 1015.34 1015.24 1015.18 1015.38 1015.51 1015.62 1015.98 1016.11 1015.99 1016.00
1007.78 1007.14 1008.09 1008.59 1008.62 1008.26 1007.83 1007.50 1007.16 1007.33 1008.37 1009.39 1008.61 1009.30 1010.39 1011.69 1012.24 1012.76 1013.05 1013.82 1014.28 1014.59 1015.17 1015.61 1015.98 1016.25 1016.59 1016.90 1016.97 1017.09 1017.21 1017.36 1016.94 1016.28 1016.29 1016.18 1015.78 1015.21 1015.18 1015.32 1015.85 1016.19 1016.21 1016.34
1008.00 1008.54 1009.51 1009.32 1009.10 1008.92 1008.22 1008.41 1008.11 1008.39 1008.50 1008.90 1009.18 1008.84 1009.53 1011.63 1012.51 1013.23 1013.64 1014.21 1014.77 1015.29 1015.51 1015.88 1016.14 1016.46 1016.74 1016.93 1017.27 1017.47 1017.71 1017.83 1017.80 1017.86 1017.16 1016.66 1016.35 1016.18 1015.90 1015.73 1015.82 1015.65 1015.75 1016.12
1009.17 1009.93 1009.91 1009.70 1009.81 1010.47 1009.41 1009.59 1009.84 1009.66 1009.34 1008.40 1008.50 1008.15 1009.13 1010.70 1012.12 1013.12 1013.71 1014.22 1014.79 1015.43 1015.76 1016.08 1016.32 1016.53 1016.64 1016.93 1017.01 1017.51 1017.89 1017.97 1017.60 1017.93 1018.02 1017.77 1017.32 1016.89 1016.57 1016.13 1015.74 1015.58 1015.75 1016.07
1009.60 1010.19 1010.32 1010.28 1011.10 1011.59 1010.57 1011.01 1010.57 1010.32 1009.88 1009.38 1008.50 1008.52 1008.93 1010.47 1011.33 1012.35 1013.65 1014.56 1015.13 1015.56 1015.80 1016.14 1016.44 1016.65 1016.68 1016.82 1016.82 1017.13 1017.45 1017.73 1017.83 1017.76 1017.73 1017.40 1017.00 1016.49 1016.21 1016.29 1016.36 1016.06 1016.19 1015.83
1010.19 1011.29 1011.46 1011.58 1011.99 1012.21 1012.01 1011.30 1010.58 1010.24 1009.73 1008.75 1007.90 1008.10 1008.54 1009.18 1010.78 1011.56 1012.93 1014.29 1015.23 1015.88 1016.04 1016.01 1016.41 1016.56 1016.53 1016.67 1016.88 1017.03 1017.34 1017.41 1017.50 1017.46 1017.32 1017.18 1016.93 1016.83 1016.67 1016.38 1016.25 1015.86 1015.34 1014.85
1010.63 1010.92 1011.89 1012.59 1011.87 1011.57 1011.72 1011.30 1010.08 1009.45 1008.70 1008.17 1008.71 1009.55 1009.36 1010.96 1012.05 1012.89 1013.27 1014.22 1015.14 1015.69 1015.79 1015.68 1016.06 1016.22 1016.28 1016.37 1016.56 1016.97 1017.08 1017.15 1017.15 1017.07 1016.96 1016.81 1016.65 1016.50 1016.28 1016.24 1015.75 1015.16 1015.06 1014.76
1010.10 1010.75 1012.04 1013.00 1013.01 1012.76 1012.33 1012.65 1011.69 1011.01 1009.83 1009.10 1009.14 1008.94 1010.20 1011.93 1013.25 1014.19 1014.76 1015.32 1015.69 1015.61 1015.65 1015.99 1015.99 1015.87 1015.83 1016.10 1016.55 1016.85 1016.95 1016.78 1016.69 1016.62 1016.50 1016.46 1016.39 1016.09 1015.71 1015.41 1015.50 1015.30 1015.20 1015.10
1011.11 1011.40 1013.07 1013.36 1013.62 1013.84 1012.83 1012.64 1013.55 1013.21 1012.31 1010.81 1009.12 1009.19 1010.18 1012.69 1013.74 1014.45 1014.54 1015.04 1015.28 1016.08 1016.19 1016.04 1015.87 1016.04 1016.04 1016.26 1016.36 1016.45 1016.43 1016.27 1016.16 1016.18 1016.13 1015.99 1015.87 1015.72 1015.48 1015.32 1015.18 1015.02 1015.05 1015.03
1012.62 1012.74 1012.88 1013.65 1014.14 1014.26 1014.00 1014.16 1013.79 1013.31 1013.15 1011.77 1010.07 1010.22 1010.82 1012.48 1012.96 1013.63 1014.18 1014.48 1014.84 1015.29 1015.58 1015.60 1015.88 1016.23 1016.08 1015.99 1015.86 1015.73 1015.65 1015.46 1015.54 1015.60 1015.45 1015.31 1015.32 1015.24 1015.22 1015.61 1015.56 1015.50 1015.32 1015.30
1013.78 1014.04 1013.39 1014.11 1013.42 1012.99 1013.71 1013.55 1014.12 1014.70 1014.36 1013.23 1012.04 1011.09 1012.07 1013.11 1013.91 1014.48 1014.76 1014.88 1015.93 1016.45 1016.44 1015.74 1015.60 1015.85 1015.40 1015.31 1015.26 1015.26 1015.27 1015.14 1014.88 1014.87 1014.97 1014.94 1014.93 1015.21 1015.32 1015.29 1015.12 1015.10 1015.04 1015.16
1014.78 1014.61 1013.64 1012.76 1013.43 1014.16 1014.01 1013.87 1014.23 1014.73 1014.64 1013.91 1013.53 1012.76 1013.29 1013.87 1014.13 1014.50 1014.72 1015.66 1016.97 1016.77 1015.32 1014.97 1015.07 1015.11 1015.14 1015.19 1015.12 1015.00 1015.00 1014.86 1014.56 1014.41 1014.57 1014.92 1015.18 1015.30 1015.19 1015.05 1014.97 1014.90 1014.88 1014.72
1015.43 1015.03 1014.28 1013.08 1013.80 1014.39 1014.18 1013.96 1014.47 1015.01 1015.53 1015.08 1014.33 1013.29 1012.71 1013.08 1013.70 1014.26 1014.69 1015.11 1015.33 1015.44 1015.09 1014.88 1014.84 1015.01 1015.09 1015.06 1015.19 1015.28 1015.50 1015.63 1015.80 1015.55 1015.37 1015.53 1015.36 1015.23 1014.98 1014.75 1014.66 1014.51 1014.27 1014.18
1016.80 1015.77 1014.85 1013.78 1012.87 1013.35 1013.55 1013.71 1014.09 1014.49 1014.92 1014.91 1014.15 1013.26 1013.27 1013.46 1014.01 1014.74 1015.34 1015.49 1015.36 1015.24 1015.03 1014.80 1014.95 1015.13 1015.15 1015.28 1015.84 1016.00 1016.26 1016.33 1015.73 1015.70 1015.76 1015.54 1015.27 1014.97 1014.84 1014.49 1014.31 1014.08 1013.72 1013.47
1016.73 1015.85 1014.85 1014.05 1013.76 1013.64 1013.46 1013.47 1013.57 1013.79 1014.05 1014.20 1014.02 1013.75 1013.75 1014.02 1014.68 1015.25 1015.51 1015.47 1015.28 1015.08 1014.97 1015.13 1015.32 1015.43 1015.75 1016.05 1016.06 1016.36 1016.55 1016.64 1016.77 1016.58 1016.14 1015.57 1015.08 1014.79 1014.42 1013.98 1013.61 1013.43 1013.17 1012.79
1016.51 1015.93 1015.22 1014.41 1013.84 1013.47 1013.31 1013.24 1013.47 1013.74 1014.01 1014.29 1014.33 1014.14 1014.31 1014.82 1015.25 1015.63 1015.63 1015.46 1015.32 1015.69 1015.37 1015.49 1015.70 1016.33 1016.39 1016.34 1016.52 1016.84 1016.86 1017.10 1017.00 1016.43 1015.82 1015.35 1014.81 1014.35 1013.90 1013.45 1013.11 1012.79 1012.47 1012.17
1016.23 1015.80 1015.19 1014.30 1013.53 1013.85 1013.45 1012.80 1013.10 1013.64 1014.15 1014.77 1014.93 1014.90 1015.45 1015.45 1015.86 1015.96 1015.71 1015.66 1015.93 1015.73 1015.65 1015.75 1016.48 1016.80 1016.75 1017.01 1017.21 1017.30 1017.21 1016.87 1016.47 1015.89 1015.31 1014.76 1014.21 1013.65 1013.25 1012.81 1012.24 1012.00 1011.68 1011.49
1015.99 1016.18 1015.71 1014.63 1014.20 1013.45 1013.06 1014.20 1014.71 1015.16 1015.33 1015.61 1015.70 1015.87 1016.11 1016.23 1016.30 1016.28 1015.97 1016.47 1015.96 1015.96 1015.92 1016.41 1016.83 1016.86 1017.12 1017.48 1017.74 1017.41 1016.93 1016.35 1015.75 1015.14 1014.58 1014.01 1013.46 1012.88 1012.44 1011.93 1011.50 1011.16 1010.92 1010.71
1016.39 1016.19 1015.50 1014.92 1014.06 1013.36 1013.21 1014.50 1015.66 1016.55 1016.38 1016.53 1016.43 1016.59 1016.70 1016.46 1016.49 1016.15 1016.11 1016.29 1016.14 1016.15 1016.37 1016.94 1017.15 1017.07 1017.46 1017.91 1017.61 1017.11 1016.45 1015.82 1015.14 1014.40 1013.75 1013.16 1012.58 1012.07 1011.54 1011.13 1010.70 1010.30 1010.08 1009.92
1016.06 1016.45 1016.04 1015.07 1014.26 1013.91 1013.79 1015.39 1016.48 1017.09 1016.81 1016.84 1017.12 1017.06 1016.80 1016.68 1016.32 1015.85 1016.23 1016.16 1016.12 1016.31 1016.81 1017.09 1017.12 1017.54 1018.11 1017.80 1017.38 1016.83 1016.07 1015.32 1014.48 1013.65 1013.01 1012.36 1011.84 1011.31 1010.66 1010.23 1009.84 1009.53 1009.45 1009.14
1015.57 1015.56 1015.21 1014.64 1014.26 1013.90 1014.11 1015.59 1017.01 1017.21 1017.29 1017.22 1017.34 1017.17 1016.85 1016.81 1016.75 1016.35 1016.09 1016.07 1016.30 1016.63 1017.02 1017.19 1017.39 1018.20 1018.05 1017.64 1017.11 1016.35 1015.48 1014.64 1013.80 1012.98 1012.29 1011.61 1011.04 1010.45 1009.93 1009.49 1009.25 1008.99 1008.82 1008.48
1014.28 1014.54 1014.32 1014.36 1014.21 1014.08 1014.82 1016.16 1017.17 1017.00 1017.29 1017.22 1017.22 1017.09 1017.01 1016.85 1016.61 1016.32 1016.14 1016.20 1016.49 1016.79 1017.05 1017.50 1018.22 1018.25 1017.86 1017.40 1016.72 1015.80 1014.91 1014.08 1013.18 1012.32 1011.56 1010.92 1010.35 1009.79 1009.50 1009.18 1008.84 1008.58 1008.33 1007.91
1014.08 1013.90 1014.10 1014.24 1013.91 1014.99 1015.39 1015.76 1016.28 1016.72 1016.89 1016.95 1017.01 1017.08 1016.99 1016.69 1016.52 1016.48 1016.47 1016.45 1016.63 1017.22 1017.63 1018.08 1018.56 1018.11 1017.71 1017.07 1016.38 1015.46 1014.55 1013.73 1012.76 1011.82 1011.13 1010.66 1010.17 1009.76 1009.34 1008.92 1008.62 1008.43 1008.07 1007.60
1013.29 1014.03 1014.43 1014.33 1013.98 1014.24 1014.79 1015.58 1016.00 1016.40 1016.56 1016.77 1017.02 1016.83 1016.81 1016.77 1016.75 1016.76 1016.63 1016.68 1017.28 1017.51 1018.15 1018.32 1018.36 1017.93 1017.38 1016.71 1015.91 1015.24 1014.39 1013.49 1012.60 1011.72 1011.11 1010.60 1010.03 1009.59 1009.07 1008.78 1008.72 1008.51 1007.91 1007.62
1012.63 1013.41 1013.86 1013.78 1013.81 1014.04 1014.53 1014.97 1015.71 1016.24 1016.63 1016.73 1016.61 1016.82 1016.91 1016.94 1017.07 1017.04 1016.87 1017.43 1017.68 1018.22 1018.35 1018.51 1018.24 1017.80 1017.19 1016.45 1015.59 1014.86 1014.18 1013.34 1012.51 1011.78 1011.11 1010.61 1010.03 1009.52 1009.09 1008.76 1008.61 1008.55 1008.18 1007.65
1012.83 1013.14 1013.46 1013.51 1013.65 1014.03 1014.66 1015.23 1015.85 1016.23 1016.39 1016.56 1016.73 1016.88 1017.06 1017.17 1017.23 1017.12 1017.79 1017.87 1018.02 1018.23 1018.34 1018.37 1018.11 1017.65 1017.00 1016.26 1015.47 1014.52 1013.94 1013.39 1012.54 1011.63 1011.11 1010.63 1009.99 1009.86 1009.51 1009.02 1008.55 1008.54 1008.27 1007.83
Thickness
5786 5777 5778 5777 5777 5774 5775 5767 5764 5775 5769 5753 5759 5751 5746 5741 5743 5736 5731 5724 5718 5712 5713 5712 5709 5706 5700 5695 5690 5687 5685 5682 5684 5684 5686 5684 5682 5681 5678 5675 5673 5670 5669 5668
5770 5763 5768 5769 5765 5762 5763 5757 5760 5767 5762 5747 5753 5742 5742 5735 5731 5727 5722 5713 5708 5705 5701 5697 5693 5689 5683 5677 5675 5672 5668 5666 5667 5669 5667 5665 5665 5668 5666 5662 5659 5653 5653 5652
5756 5757 5761 5756 5753 5747 5756 5744 5749 5743 5753 5753 5742 5737 5735 5728 5725 5719 5716 5708 5699 5691 5685 5682 5678 5674 5669 5663 5658 5655 5651 5648 5646 5642 5645 5648 5647 5646 5644 5643 5643 5645 5644 5640
5751 5755 5748 5747 5739 5735 5729 5746 5738 5733 5729 5722 5747 5714 5726 5718 5712 5707 5703 5698 5690 5681 5676 5670 5665 5660 5656 5651 5648 5641 5635 5631 5633 5627 5622 5621 5619 5620 5624 5627 5631 5632 5629 5626
5737 5738 5736 5732 5724 5727 5726 5733 5729 5727 5720 5721 5731 5717 5725 5720 5704 5697 5690 5686 5680 5673 5666 5657 5651 5646 5643 5638 5633 5627 5623 5618 5613 5611 5608 5608 5608 5611 5613 5611 5609 5611 5608 5610
5740 5743 5734 5726 5726 5722 5725 5723 5727 5728 5722 5704 5731 5727 5723 5722 5706 5705 5691 5677 5668 5660 5655 5648 5642 5635 5629 5624 5617 5612 5606 5601 5598 5595 5593 5592 5591 5590 5588 5590 5590 5594 5599 5602
5726 5726 5728 5723 5715 5727 5721 5711 5701 5701 5709 5708 5724 5700 5714 5705 5701 5692 5684 5672 5660 5652 5646 5640 5629 5621 5615 5608 5601 5594 5588 5585 5583 5580 5578 5577 5576 5575 5575 5574 5577 5582 5583 5586
5722 5707 5714 5716 5705 5698 5704 5696 5687 5665 5687 5706 5722 5694 5693 5694 5685 5674 5665 5656 5646 5640 5633 5622 5615 5608 5601 5592 5583 5575 5569 5567 5566 5566 5566 5564 5562 5562 5562 5564 5563 5565 5565 5566
5709 5708 5711 5708 5707 5700 5697 5690 5693 5673 5685 5683 5716 5715 5705 5678 5664 5656 5649 5640 5631 5618 5611 5604 5600 5590 5580 5572 5566 5561 5556 5553 5553 5552 5552 5551 5550 5549 5549 5549 5550 5551 5551 5550
5709 5686 5706 5701 5700 5696 5689 5692 5671 5678 5641 5650 5696 5689 5676 5668 5665 5659 5649 5641 5632 5621 5609 5596 5582 5570 5564 5560 5555 5552 5549 5545 5543 5543 5541 5541 5540 5539 5538 5533 5532 5532 5533 5533
5703 5687 5690 5690 5690 5691 5684 5680 5676 5667 5662 5647 5650 5676 5680 5660 5651 5639 5633 5628 5610 5594 5583 5581 5572 5563 5560 5554 5549 5543 5538 5535 5535 5533 5532 5531 5530 5527 5524 5523 5524 5523 5522 5520
5694 5684 5676 5691 5697 5690 5685 5677 5672 5644 5643 5659 5650 5650 5666 5654 5642 5630 5621 5608 5589 5582 5587 5577 5567 5559 5551 5544 5539 5535 5530 5528 5529 5528 5525 5521 5518 5516 5514 5514 5512 5511 5510 5511
5687 5674 5658 5675 5679 5676 5668 5676 5670 5660 5648 5634 5627 5637 5670 5661 5647 5637 5621 5610 5596 5582 5574 5566 5558 5549 5540 5535 5529 5525 5519 5514 5510 5510 5509 5506 5506 5505 5506 5506 5505 5505 5505 5504
5671 5668 5663 5659 5676 5678 5664 5668 5668 5657 5632 5631 5641 5645 5649 5644 5631 5620 5606 5597 5586 5572 5562 5556 5547 5539 5533 5527 5517 5512 5506 5501 5504 5501 5497 5497 5497 5499 5499 5500 5498 5498 5499 5500
5666 5655 5669 5675 5677 5673 5669 5666 5665 5656 5654 5635 5641 5637 5638 5632 5619 5608 5598 5587 5573 5562 5555 5545 5536 5530 5523 5514 5510 5503 5497 5491 5486 5484 5485 5487 5490 5491 5493 5495 5496 5496 5495 5496
5665 5651 5660 5658 5671 5670 5662 5667 5664 5659 5653 5645 5641 5632 5637 5627 5615 5598 5586 5575 5562 5547 5545 5538 5529 5516 5511 5508 5501 5494 5489 5481 5477 5478 5480 5481 5483 5486 5488 5490 5492 5493 5493 5494
5655 5653 5652 5646 5668 5657 5645 5668 5665 5659 5654 5638 5619 5626 5620 5609 5596 5585 5577 5564 5547 5540 5537 5529 5516 5507 5503 5497 5491 5485 5479 5477 5474 5474 5475 5476 5478 5482 5484 5487 5491 5492 5493 5492
5652 5644 5646 5644 5651 5627 5662 5659 5650 5638 5638 5634 5625 5616 5608 5597 5589 5577 5567 5547 5542 5533 5528 5518 5509 5504 5496 5488 5479 5476 5473 5470 5469 5468 5469 5470 5472 5477 5481 5486 5489 5491 5492 5491
5650 5643 5638 5632 5639 5655 5661 5648 5629 5605 5615 5622 5613 5605 5598 5591 5579 5570 5561 5548 5537 5529 5519 5508 5501 5498 5490 5478 5474 5470 5467 5464 5462 5461 5462 5464 5468 5472 5478 5483 5489 5492 5492 5491
5646 5639 5633 5636 5624 5614 5645 5638 5630 5618 5595 5612 5601 5591 5586 5580 5560 5562 5553 5542 5532 5523 5512 5503 5499 5492 5479 5475 5470 5464 5461 5458 5457 5457 5458 5461 5464 5469 5478 5485 5490 5493 5492 5493
5630 5631 5628 5631 5626 5637 5649 5634 5619 5593 5594 5602 5595 5588 5582 5569 5562 5556 5549 5536 5526 5515 5504 5500 5494 5481 5476 5471 5466 5462 5460 5459 5458 5457 5459 5462 5467 5474 5481 5488 5491 5493 5494 5498
5635 5626 5630 5631 5623 5618 5640 5619 5594 5605 5603 5599 5593 5586 5576 5569 5561 5552 5542 5530 5519 5509 5502 5495 5483 5479 5474 5470 5467 5463 5461 5461 5460 5461 5465 5470 5475 5481 5485 5489 5493 5495 5498 5502
5625 5640 5633 5629 5631 5631 5630 5621 5616 5610 5601 5595 5588 5580 5572 5564 5556 5545 5533 5525 5517 5505 5497 5489 5479 5478 5474 5472 5468 5466 5465 5464 5466 5470 5473 5476 5479 5483 5487 5492 5496 5498 5501 5506
5643 5643 5625 5625 5636 5633 5628 5622 5616 5609 5600 5593 5584 5578 5569 5558 5549 5539 5530 5523 5511 5504 5492 5486 5480 5478 5475 5474 5473 5470 5469 5470 5473 5477 5480 5482 5485 5489 5496 5499 5498 5501 5507 5510
5645 5639 5626 5627 5632 5631 5627 5622 5612 5603 5596 5588 5584 5574 5563 5553 5542 5533 5527 5515 5509 5497 5491 5484 5480 5478 5476 5476 5477 5475 5474 5475 5479 5483 5486 5488 5492 5498 5503 5505 5506 5506 5508 5511
5639 5629 5621 5617 5630 5624 5617 5614 5606 5597 5590 5585 5576 5567 5559 5547 5537 5529 5515 5511 5506 5498 5491 5484 5481 5480 5479 5479 5480 5482 5481 5481 5485 5491 5493 5496 5501 5502 5504 5509 5513 5510 5512 5516